TimePDT,TemperatureF,Dew PointF,Humidity,Sea Level PressureIn,VisibilityMPH,Wind Direction,Wind SpeedMPH,Gust SpeedMPH,PrecipitationIn,Events,Conditions,WindDirDegrees,DateUTC
12:15 AM,75.2,17.6,11,29.81,10.0,Calm,Calm,-,N/A,,Clear,0,2013-04-29 07:15:00
12:35 AM,75.2,17.6,11,29.80,10.0,Calm,Calm,-,N/A,,Clear,0,2013-04-29 07:35:00
12:55 AM,69.8,26.6,20,29.80,10.0,Calm,Calm,-,N/A,,Clear,0,2013-04-29 07:55:00
1:15 AM,69.8,28.4,21,29.81,10.0,Calm,Calm,-,N/A,,Clear,0,2013-04-29 08:15:00
1:35 AM,68.0,26.6,21,29.80,10.0,NNE,3.5,-,N/A,Thunderstorm,Clear,30,2013-04-29 08:35:00
1:55 AM,68.0,26.6,21,29.80,10.0,Calm,Calm,-,N/A,,Clear,0,2013-04-29 08:55:00
2:15 AM,68.0,24.8,20,29.80,10.0,WNW,3.5,-,N/A,,Clear,300,2013-04-29 09:15:00
2:35 AM,71.6,21.2,15,29.79,10.0,NW,4.6,-,N/A,,Clear,310,2013-04-29 09:35:00
2:55 AM,68.0,28.4,23,29.79,10.0,NW,3.5,-,N/A,,Clear,320,2013-04-29 09:55:00
3:15 AM,66.2,30.2,26,29.79,10.0,Calm,Calm,-,N/A,,Clear,0,2013-04-29 10:15:00
3:35 AM,66.2,30.2,26,29.79,10.0,Calm,Calm,-,N/A,,Clear,0,2013-04-29 10:35:00
3:55 AM,66.2,26.6,23,29.79,10.0,Calm,Calm,-,N/A,,Clear,0,2013-04-29 10:55:00
4:15 AM,66.2,26.6,23,29.79,10.0,NNW,3.5,-,N/A,,Clear,340,2013-04-29 11:15:00
4:35 AM,64.4,26.6,24,29.80,10.0,North,3.5,-,N/A,,Clear,350,2013-04-29 11:35:00
4:55 AM,64.4,26.6,24,29.80,10.0,Calm,Calm,-,N/A,,Clear,0,2013-04-29 11:55:00
5:15 AM,66.2,24.8,21,29.80,10.0,NNE,6.9,-,N/A,,Clear,20,2013-04-29 12:15:00
5:35 AM,69.8,19.4,15,29.81,10.0,NNE,5.8,-,N/A,,Clear,20,2013-04-29 12:35:00
5:55 AM,68.0,23.0,18,29.81,10.0,North,5.8,-,N/A,,Clear,360,2013-04-29 12:55:00
6:15 AM,75.2,17.6,11,29.82,10.0,Calm,Calm,-,N/A,,Clear,0,2013-04-29 13:15:00
6:35 AM,77.0,15.8,10,29.83,10.0,Calm,Calm,-,N/A,,Clear,0,2013-04-29 13:35:00
6:55 AM,75.2,23.0,14,29.83,10.0,ENE,3.5,-,N/A,,Clear,60,2013-04-29 13:55:00
7:15 AM,77.0,17.6,11,29.84,10.0,SW,3.5,-,N/A,,Clear,230,2013-04-29 14:15:00
7:35 AM,80.6,17.6,10,29.84,10.0,Calm,Calm,-,N/A,,Clear,0,2013-04-29 14:35:00
7:55 AM,82.4,17.6,9,29.84,10.0,NW,8.1,-,N/A,,Clear,320,2013-04-29 14:55:00
8:15 AM,82.4,17.6,9,29.85,10.0,WNW,8.1,-,N/A,,Clear,290,2013-04-29 15:15:00
8:35 AM,82.4,17.6,9,29.84,10.0,West,8.1,-,N/A,,Clear,280,2013-04-29 15:35:00
8:55 AM,82.4,19.4,10,29.84,10.0,WNW,6.9,-,N/A,Thunderstorm,Clear,290,2013-04-29 15:55:00
9:15 AM,84.2,19.4,9,29.84,10.0,WNW,6.9,-,N/A,,Clear,290,2013-04-29 16:15:00
9:35 AM,86.0,17.6,8,29.84,10.0,North,10.4,-,N/A,,Clear,350,2013-04-29 16:35:00
9:55 AM,87.8,19.4,8,29.84,10.0,North,6.9,-,N/A,,Clear,360,2013-04-29 16:55:00
10:15 AM,89.6,19.4,8,29.84,10.0,NNW,8.1,-,N/A,,Clear,330,2013-04-29 17:15:00
10:35 AM,89.6,19.4,8,29.84,10.0,ENE,4.6,-,N/A,,Clear,70,2013-04-29 17:35:00
10:55 AM,89.6,19.4,8,29.84,10.0,North,3.5,-,N/A,Thunderstorm,Clear,10,2013-04-29 17:55:00
11:15 AM,89.6,19.4,8,29.83,10.0,SE,4.6,-,N/A,,Clear,130,2013-04-29 18:15:00
11:35 AM,89.6,19.4,8,29.83,10.0,East,5.8,-,N/A,,Clear,90,2013-04-29 18:35:00
11:55 AM,91.4,19.4,7,29.82,10.0,ENE,8.1,-,N/A,,Clear,70,2013-04-29 18:55:00
12:15 PM,91.4,19.4,7,29.81,10.0,NE,6.9,-,N/A,,Clear,40,2013-04-29 19:15:00
12:35 PM,91.4,19.4,7,29.80,10.0,ENE,5.8,-,N/A,,Clear,60,2013-04-29 19:35:00
12:55 PM,91.4,19.4,7,29.79,10.0,Calm,Calm,-,N/A,,Clear,0,2013-04-29 19:55:00
1:15 PM,93.2,19.4,7,29.78,10.0,NE,6.9,-,N/A,,Clear,40,2013-04-29 20:15:00
1:35 PM,93.2,17.6,6,29.77,10.0,Calm,Calm,-,N/A,,Clear,0,2013-04-29 20:35:00
1:55 PM,93.2,17.6,6,29.76,10.0,North,6.9,-,N/A,,Clear,360,2013-04-29 20:55:00
2:15 PM,95.0,17.6,6,29.74,10.0,North,5.8,-,N/A,,Clear,10,2013-04-29 21:15:00
2:35 PM,95.0,17.6,6,29.73,10.0,SE,4.6,-,N/A,,Clear,140,2013-04-29 21:35:00
2:55 PM,96.8,15.8,5,29.71,10.0,South,6.9,16.1,N/A,,Clear,170,2013-04-29 21:55:00
3:15 PM,95.0,15.8,6,29.70,10.0,South,5.8,-,N/A,,Clear,190,2013-04-29 22:15:00
3:35 PM,95.0,15.8,6,29.69,10.0,SW,10.4,-,N/A,,Clear,220,2013-04-29 22:35:00
3:55 PM,98.6,15.8,5,29.67,10.0,SW,12.7,21.9,N/A,,Clear,220,2013-04-29 22:55:00
4:15 PM,96.8,15.8,5,29.67,10.0,West,6.9,-,N/A,,Clear,260,2013-04-29 23:15:00
4:35 PM,98.6,15.8,5,29.66,10.0,SW,12.7,17.3,N/A,,Clear,230,2013-04-29 23:35:00
4:55 PM,96.8,14.0,5,29.65,10.0,WSW,12.7,-,N/A,,Clear,240,2013-04-29 23:55:00
5:15 PM,96.8,14.0,5,29.65,10.0,West,10.4,-,N/A,,Clear,260,2013-04-30 00:15:00
5:35 PM,96.8,14.0,5,29.64,10.0,West,8.1,-,N/A,,Clear,260,2013-04-30 00:35:00
5:55 PM,95.0,14.0,5,29.64,10.0,West,12.7,-,N/A,,Clear,260,2013-04-30 00:55:00
6:15 PM,95.0,14.0,5,29.63,8.0,West,9.2,18.4,N/A,,Clear,270,2013-04-30 01:15:00
6:35 PM,95.0,14.0,5,29.63,10.0,WSW,12.7,-,N/A,,Clear,240,2013-04-30 01:35:00
6:55 PM,93.2,14.0,5,29.63,10.0,WSW,9.2,-,N/A,,Clear,240,2013-04-30 01:55:00
7:15 PM,91.4,14.0,6,29.63,10.0,WSW,8.1,-,N/A,,Clear,240,2013-04-30 02:15:00
7:35 PM,91.4,12.2,5,29.64,9.0,WSW,11.5,-,N/A,,Clear,240,2013-04-30 02:35:00
7:55 PM,89.6,12.2,6,29.64,10.0,WSW,13.8,-,N/A,,Clear,250,2013-04-30 02:55:00
8:35 PM,86.0,14.0,7,29.65,10.0,SW,6.9,-,N/A,,Clear,230,2013-04-30 03:35:00
8:55 PM,84.2,14.0,7,29.65,10.0,South,4.6,-,N/A,,Clear,170,2013-04-30 03:55:00
9:15 PM,82.4,14.0,8,29.65,10.0,South,3.5,-,N/A,,Clear,190,2013-04-30 04:15:00
9:35 PM,82.4,14.0,8,29.65,10.0,Calm,Calm,-,N/A,,Clear,0,2013-04-30 04:35:00
9:55 PM,77.0,23.0,13,29.65,10.0,Calm,Calm,-,N/A,,Clear,0,2013-04-30 04:55:00
10:15 PM,80.6,14.0,8,29.65,10.0,WNW,4.6,-,N/A,,Clear,290,2013-04-30 05:15:00
10:35 PM,78.8,14.0,9,29.65,10.0,West,5.8,-,N/A,,Clear,280,2013-04-30 05:35:00
10:55 PM,80.6,12.2,8,29.65,10.0,WSW,8.1,-,N/A,,Clear,250,2013-04-30 05:55:00
11:15 PM,78.8,12.2,8,29.66,10.0,WSW,6.9,-,N/A,,Clear,240,2013-04-30 06:15:00
11:35 PM,80.6,10.4,7,29.66,10.0,SW,8.1,-,N/A,,Clear,230,2013-04-30 06:35:00
11:55 PM,82.4,19.4,10,29.66,10.0,SW,11.5,-,N/A,,Unknown,230,2013-04-30 06:55:00